Location: Boiro
(42.6475°N, 8.8834°W)
Time: 19:02:46
(UTC+01:00)

A-11 Canister half - Pass Details

Date: 08 December 2021
Orbit: 1516 x 1684 km, 47.2° (Epoch: 26 January)

Event Time Altitude Azimuth Distance (km) Brightness Sun altitude
Rises 10:47:49 0° 280° (W) 4,805 11.2 15.0°
Reaches altitude 10° 10:50:56 10° 283° (WNW) 3,842 10.7 15.3°
Maximum altitude 11:00:47 70° 7° (N) 1,747 9.4 16.4°
Drops below altitude 10° 11:10:55 10° 91° (E) 3,941 11.7 17.4°
Sets 11:14:08 0° 94° (E) 4,934 12.2 17.7°
